Simultaneous Nadir Overpasses (SNOs) Predictions

Prediction of SNOs between NOAA-15 and METOP-C Satellite Orbit:

Table of predicted SNOs for the next 14.0 days since TLE Epoch: 10/28/2022
Index Date (NOAA-15) Time (NOAA-15) Lat,Lon (NOAA-15) SZA (NOAA-15 ) Date (METOP-C) Time (METOP-C) Lat,Lon (METOP-C) SZA (METOP-C ) Distance(km) Time Diff (sec)
1 11/07/2022 18:28:14 81.06, -58.36 99.75 11/07/2022 18:27:01 81.07, -58.20 99.74 2.90 73
2 11/07/2022 19:18:43 -81.06, 108.99 80.25 11/07/2022 19:17:44 -81.06, 108.86 80.29 2.23 59
3 11/07/2022 20:09:16 81.07, -83.78 99.76 11/07/2022 20:08:23 81.06, -83.68 99.74 1.73 53
4 11/07/2022 20:59:45 -81.07, 83.57 80.24 11/07/2022 20:59:05 -81.06, 83.75 80.24 3.16 40
5 11/07/2022 21:50:17 81.06,-108.82 99.80 11/07/2022 21:49:44 81.07,-108.79 99.79 1.52 33
6 11/07/2022 22:40:47 -81.07, 58.15 80.23 11/07/2022 22:40:27 -81.06, 58.27 80.24 2.66 20
7 11/07/2022 23:31:19 81.06,-134.24 99.81 11/07/2022 23:31:06 81.06,-134.27 99.80 0.65 13
8 11/08/2022 00:21:48 -81.06, 33.10 80.19 11/08/2022 00:21:48 -81.07, 33.16 80.18 1.06 0
9 11/08/2022 01:12:21 81.07,-159.65 99.81 11/08/2022 01:12:28 81.06,-159.75 99.80 2.23 7
10 11/08/2022 02:02:50 -81.07, 7.68 80.18 11/08/2022 02:03:10 -81.06, 7.68 80.18 1.07 20
11 11/08/2022 02:53:22 81.06, 175.31 99.85 11/08/2022 02:53:49 81.07, 175.14 99.85 3.00 27
12 11/08/2022 03:43:51 -81.06, -17.36 80.15 11/08/2022 03:44:31 -81.07, -17.43 80.13 1.44 40
13 11/08/2022 04:34:24 81.07, 149.89 99.86 11/08/2022 04:35:10 81.08, 150.03 99.90 2.53 46
14 11/08/2022 05:24:53 -81.07, -42.78 80.14 11/08/2022 05:25:53 -81.07, -42.91 80.13 2.25 60



Historial Predications of SNOs between NOAA-15 and METOP-C
